Regional Weather Roundup
Issued by NWS Midland/Odessa, TX

Home | Current Version | Previous Version | Text Only | Print | Product List | Glossary On
Versions: 1 2 3 4 5 6 7 8 9 10 11 12 13 14 15 16 17 18 19 20 21 22 23 24 25 26 27 28 29 30 31 32 33 34 35 36 37 38 39 40 41 42 43 44 45 46 47 48 49 50
000
ASUS44 KMAF 290010
RWRMAF
MIDLAND AREA WEATHER ROUNDUP
NATIONAL WEATHER SERVICE MIDLAND TX
700 PM CDT THU APR 28 2016

...IN SOUTHWEST TEXAS AND SOUTHEAST NEW MEXICO...

CITY           SKY/WX    TMP DP  RH WIND       PRES   REMARKS
ALPINE         SUNNY     85   9   6 SW15G22   29.80S
ANDREWS        FAIR      87  19   8 S14G20    29.67F
ARTESIA        SUNNY     84  18   8 SW23G31   29.66S
BIG SPRING     SUNNY     82  48  31 SE18G29   29.70S
CARLSBAD       SUNNY     87  12   6 SW9G23    29.63S
DRYDEN           N/A     84  61  45 E20G29    29.65R
FORT STOCKTON  SUNNY     85  54  34 S25G35    29.63R
GUAD PASS      SUNNY     78   7   6 SW25G31   29.78S
HOBBS          SUNNY     84  14   7 S21G28    29.68F
MARFA          SUNNY     81  12   7 S12       29.79R
MIDLAND AIRPK  SUNNY     86  46  24 SE21G26   29.68S
MIDLAND INTL   SUNNY     86  48  26 SE24G32   29.67S
ODESSA         SUNNY     87  46  24 S20G25    29.67S
PECOS          SUNNY     91  18   6 E12       29.60S
PRESIDIO       FAIR      92  15   6 S12G22    29.64S
SEMINOLE       SUNNY     86  21   9 S10       29.68F
SNYDER           N/A     82  54  37 SE18G26   29.70S
WINK           SUNNY     91  18   7 S12G18    29.61S
$$
...OTHER STATIONS IN TEXAS...

CITY           SKY/WX    TMP DP  RH WIND       PRES   REMARKS
ABILENE        SUNNY     80  55  42 SE22G28   29.73S
AMARILLO       SUNNY     68  54  60 SE31G40   29.74F
AUSTIN         PTSUNNY   81  73  76 S10       29.74R
BROWNSVILLE    CLOUDY    81  75  82 SE13G22   29.68R
CORPUS CHRISTI PTSUNNY   81  73  76 SE21      29.71S HAZE
DALLAS FTW     MOSUNNY   81  56  42 SE15G22   29.78F
DEL RIO        PTSUNNY   84  69  60 E14G25    29.64S
EL PASO        MOSUNNY   81  16   9 W5        29.68S
HOUSTON INT    CLOUDY    78  74  87 SE16      29.78S
LUBBOCK        MOSUNNY   84  46  26 S26G36    29.67R
SAN ANGELO     SUNNY     82  60  47 SE21G28   29.69F
SAN ANTONIO    PTSUNNY   79  72  79 E9        29.73S
WACO           SUNNY     82  63  52 E9        29.77S
WICHITA FALLS  NOT AVBL
$$
...OTHER LOCATIONS IN NEW MEXICO...

CITY           SKY/WX    TMP DP  RH WIND       PRES   REMARKS
ALAMAGORDO     SUNNY     77  18  10 SW18G26   29.70F
ALBUQUERQUE    PTSUNNY   71   9   9 S21G29    29.68S
CANNON AFB     SUNNY     80  14   8 SW17G26   29.70R
CLOVIS         SUNNY     81  21  11 SW24      29.71R
HOLLOMAN AFB   SUNNY     79  16   9 SW17      29.68F
ROSWELL        SUNNY     83  13   7 SW23G35   29.64S
RUIDOSO          N/A     64  16  15 SW26      29.85R
SANTA FE       CLOUDY    63  28  26 SE21      29.73R
TRUTH OR CONSE SUNNY     75   6   7 SW22G32   29.68S
TUCUMCARI      SUNNY     70  44  39 NE26G33   29.70F
$$



USA.gov is the U.S. government's official web portal to all federal, state and local government web resources and services.